Le nostre stazioni meteo in Italia

Pubblicità
Il mio iltempo24.it
Ponza, Italia (16280): Temperatura & dewpoint: 04.04.2020 04:00:00 - 10.04.2020 04:00:00 (CEST)Ponza, Italia (16280): velocità del vento & gusts: 04.04.2020 04:00:00 - 10.04.2020 04:00:00 (CEST)Ponza, Italia (16280): direzione del vento: 04.04.2020 04:00:00 - 10.04.2020 04:00:00 (CEST)Ponza, Italia (16280): reduced air pressure: 04.04.2020 04:00:00 - 10.04.2020 04:00:00 (CEST)Ponza, Italia (16280): visibility: 04.04.2020 04:00:00 - 10.04.2020 04:00:00 (CEST)Ponza, Italia (16280): ore di luce: 04.04.2020 04:00:00 - 10.04.2020 04:00:00 (CEST)
Data & Tempo tt [°C] td [°C] ff [km/h] ff [kn] fx [km/h] fx [kn] dd ppp [hPa] vv [km] sd [min]
10.04.2020 04:00:00 - - - - - - - - - -
10.04.2020 03:00:00 12,0 11,7 11 6 - - ONO 1022,5 10 -
10.04.2020 02:00:00 12,0 11,9 13 7 - - NO 1022,6 10 -
10.04.2020 01:00:00 12,0 11,7 15 8 23 13 ONO 1022,6 10 -
10.04.2020 00:00:00 12,0 11,9 16 9 - - ONO 1022,6 10 -
09.04.2020 23:00:00 12,0 12,0 15 8 - - NO 1022,3 10 -
09.04.2020 22:00:00 12,2 12,0 11 6 18 10 ONO 1022,3 10 -
09.04.2020 21:00:00 12,8 12,8 16 9 - - ONO 1021,6 10 -
09.04.2020 20:00:00 13,2 13,0 11 6 - - O 1021,4 10 -
09.04.2020 19:00:00 14,2 13,2 15 8 24 13 O 1021,3 10 60
09.04.2020 18:00:00 15,2 12,7 15 8 24 13 OSO 1021,2 10 60
09.04.2020 17:00:00 16,0 12,7 15 8 - - OSO 1021,4 10 60
09.04.2020 16:00:00 16,0 13,7 16 9 - - OSO 1021,7 10 60
09.04.2020 15:00:00 16,2 13,9 4 2 23 12 N 1022,0 10 60
09.04.2020 14:00:00 17,0 13,7 4 2 - - N 1022,1 8 60
09.04.2020 13:00:00 17,0 13,3 4 2 14 8 N 1022,2 8 60
09.04.2020 12:00:00 16,0 13,8 8 4 - - E 1022,8 7 60
09.04.2020 11:00:00 15,4 13,8 9 5 - - E 1023,1 7 60
09.04.2020 10:00:00 15,0 13,4 5 3 - - ESE 1022,5 7 0
09.04.2020 09:00:00 - - - - - - - - - -
09.04.2020 08:00:00 12,0 11,9 4 2 - - - 1022,6 - 60
09.04.2020 07:00:00 - - - - - - - - - -
09.04.2020 06:00:00 12,0 11,7 8 4 - - O 1022,3 4,0 -
09.04.2020 05:00:00 12,0 11,9 8 4 - - OSO 1022,3 4,0 -
09.04.2020 04:00:00 - - - - - - - - - -
09.04.2020 03:00:00 12,4 11,1 9 5 - - ONO 1023,1 10 -
09.04.2020 02:00:00 12,4 11,5 9 5 - - O 1023,1 10 -
09.04.2020 01:00:00 - - - - - - - - - -
09.04.2020 00:00:00 12,6 12,3 15 8 - - O 1023,3 10 -
08.04.2020 23:00:00 13,0 12,7 11 6 - - OSO 1023,2 10 -
08.04.2020 22:00:00 13,4 12,5 9 5 - - OSO 1023,2 10 -
08.04.2020 21:00:00 13,6 10,0 11 6 - - OSO 1023,0 15 -
08.04.2020 20:00:00 13,8 6,7 11 6 - - SO 1022,3 15 -
08.04.2020 19:00:00 14,8 8,3 11 6 - - OSO 1022,5 15 60
08.04.2020 18:00:00 15,0 7,1 13 7 - - OSO 1022,8 15 60
08.04.2020 17:00:00 15,0 11,4 11 6 - - O 1023,0 15 60
08.04.2020 16:00:00 16,0 11,8 13 7 - - O 1023,1 15 60
08.04.2020 15:00:00 15,4 11,8 13 7 - - O 1024,1 10 60
08.04.2020 14:00:00 17,0 12,5 11 6 - - O 1024,2 10 60
08.04.2020 13:00:00 17,4 7,2 5 3 - - O 1025,0 10 60
08.04.2020 12:00:00 15,6 8,8 4 2 - - N 1025,1 10 60
08.04.2020 11:00:00 14,8 8,3 11 6 - - ESE 1025,2 10 60
08.04.2020 10:00:00 13,6 8,7 22 12 - - E 1025,2 10 60
08.04.2020 09:00:00 13,0 7,9 22 12 29 16 E 1025,3 10 60
08.04.2020 08:00:00 12,0 6,7 22 12 - - ESE 1025,4 10 24
08.04.2020 07:00:00 11,6 7,3 18 10 30 16 ESE 1025,4 10 -
08.04.2020 06:00:00 12,2 8,3 22 12 - - ESE 1025,4 20 -
08.04.2020 05:00:00 12,2 8,7 21 11 - - ESE 1025,5 20 -
08.04.2020 04:00:00 12,8 9,2 15 8 - - E 1025,6 20 -
08.04.2020 03:00:00 - - - - - - - - - -
08.04.2020 02:00:00 12,6 8,5 9 5 - - NE 1026,3 20 -
08.04.2020 01:00:00 12,4 8,7 9 5 - - NNE 1026,4 20 -
08.04.2020 00:00:00 11,6 11,4 9 5 - - N 1026,4 10 -
07.04.2020 23:00:00 11,8 11,8 11 6 - - N 1026,4 10 -
07.04.2020 22:00:00 12,4 11,1 16 9 - - NNO 1026,4 20 -
07.04.2020 21:00:00 11,8 8,1 22 12 - - NO 1026,1 20 -
07.04.2020 20:00:00 12,8 12,7 11 6 - - NNO 1025,4 10 0
07.04.2020 19:00:00 13,2 12,6 18 10 - - ONO 1025,3 20 60
07.04.2020 18:00:00 14,4 10,8 18 10 - - ONO 1025,3 20 60
07.04.2020 17:00:00 15,8 11,0 11 6 - - O 1025,2 20 60
07.04.2020 16:00:00 15,8 12,2 15 8 - - O 1025,4 20 60
07.04.2020 15:00:00 15,8 9,5 9 5 - - O 1025,9 20 60
07.04.2020 14:00:00 15,2 10,0 9 5 - - O 1026,1 30 60
07.04.2020 13:00:00 15,4 10,0 8 4 - - O 1026,1 30 60
07.04.2020 12:00:00 16,4 5,1 4 2 - - N 1026,1 30 60
07.04.2020 11:00:00 15,0 6,3 18 10 - - ESE 1026,1 20 60
07.04.2020 10:00:00 14,4 10,8 18 10 - - ESE 1025,7 20 60
07.04.2020 09:00:00 13,6 10,2 15 8 - - E 1025,8 10 60
07.04.2020 08:00:00 12,6 9,2 16 9 - - ESE 1025,9 10 24
07.04.2020 07:00:00 12,4 9,4 16 9 - - ESE 1025,6 10 -
07.04.2020 06:00:00 12,8 12,7 15 8 - - ESE 1025,3 10 -
07.04.2020 05:00:00 12,8 8,5 13 7 - - ESE 1025,3 30 -
07.04.2020 04:00:00 13,4 7,8 8 4 - - E 1025,5 30 -
07.04.2020 03:00:00 13,6 7,8 5 3 - - ENE 1025,7 30 -
07.04.2020 02:00:00 13,0 7,2 8 4 - - NNE 1025,8 20 -
07.04.2020 01:00:00 13,0 5,9 4 2 25 14 N 1025,8 20 -
07.04.2020 00:00:00 12,8 8,7 16 9 - - N 1025,3 20 -
06.04.2020 23:00:00 12,8 11,0 4 2 - - N 1025,3 20 -
06.04.2020 22:00:00 13,0 12,4 21 11 - - N 1025,1 10 -
06.04.2020 21:00:00 13,2 13,2 16 9 - - NNO 1024,6 10 -
06.04.2020 20:00:00 14,0 13,4 9 5 - - ONO 1023,9 10 0
06.04.2020 19:00:00 15,0 14,2 5 3 - - ONO 1023,3 20 12
06.04.2020 18:00:00 16,4 13,0 11 6 - - NNO 1023,0 20 54
06.04.2020 17:00:00 16,6 13,0 9 5 - - O 1022,9 30 60
06.04.2020 16:00:00 19,6 13,8 8 4 - - O 1022,7 30 60
06.04.2020 15:00:00 18,8 9,6 13 7 - - E 1022,6 30 60
06.04.2020 14:00:00 18,4 12,2 15 8 - - E 1022,4 30 60
06.04.2020 13:00:00 18,2 11,0 15 8 31 17 ENE 1022,4 30 60
06.04.2020 12:00:00 17,0 8,7 28 15 40 21 NNE 1023,1 30 60
06.04.2020 11:00:00 16,6 12,2 16 9 - - NE 1023,1 30 60
06.04.2020 10:00:00 15,0 10,8 13 7 - - ENE 1022,9 30 60
06.04.2020 09:00:00 14,2 10,8 16 9 30 16 ENE 1022,2 20 12
06.04.2020 08:00:00 14,0 10,0 16 9 - - ENE 1022,1 20 0
06.04.2020 07:00:00 13,8 10,6 18 10 29 16 ENE 1021,2 20 -
06.04.2020 06:00:00 14,0 8,0 22 12 39 21 NE 1021,0 30 -
06.04.2020 05:00:00 14,4 10,0 18 10 - - ENE 1020,8 20 -
06.04.2020 04:00:00 14,4 9,4 15 8 28 15 ENE 1020,7 30 -
06.04.2020 03:00:00 - - - - - - - - - -
06.04.2020 02:00:00 15,0 11,2 15 8 - - ENE 1020,7 30 -
06.04.2020 01:00:00 11,0 0,4 11 6 - - NE 1020,7 30 -
06.04.2020 00:00:00 16,2 2,6 5 3 - - E 1020,1 30 -
05.04.2020 23:00:00 15,6 2,7 4 2 - - N 1020,0 20 -
05.04.2020 22:00:00 - - - - - - - - - -
05.04.2020 21:00:00 15,4 6,9 8 4 - - NO 1019,6 20 -
05.04.2020 20:00:00 15,4 6,4 13 7 - - NO 1019,0 20 -
05.04.2020 19:00:00 15,4 11,6 11 6 - - O 1018,0 20 0
05.04.2020 18:00:00 16,8 11,7 11 6 - - O 1017,5 20 36
05.04.2020 17:00:00 17,4 12,9 13 7 - - OSO 1017,2 20 60
05.04.2020 16:00:00 17,0 11,5 13 7 22 12 O 1017,7 30 60
05.04.2020 15:00:00 17,0 12,5 11 6 - - O 1017,8 30 60
05.04.2020 14:00:00 16,4 13,3 9 5 - - O 1018,3 30 60
05.04.2020 13:00:00 16,4 10,5 13 7 - - O 1018,0 30 60
05.04.2020 12:00:00 17,6 8,7 8 4 18 10 NNO 1017,6 30 60
05.04.2020 11:00:00 17,0 8,7 13 7 - - NNO 1018,2 30 60
05.04.2020 10:00:00 15,6 6,1 22 12 30 16 NNO 1018,2 30 60
05.04.2020 09:00:00 14,6 9,4 16 9 - - NNO 1018,3 30 60
05.04.2020 08:00:00 13,2 7,7 13 7 - - NNO 1018,0 30 12
05.04.2020 07:00:00 12,6 7,7 16 9 - - NNO 1017,5 20 -
05.04.2020 06:00:00 12,2 9,6 9 5 - - NNO 1017,2 20 -
05.04.2020 05:00:00 12,8 11,0 4 2 - - N 1017,1 20 -
05.04.2020 04:00:00 13,6 4,2 22 12 - - NE 1017,1 20 -
05.04.2020 03:00:00 12,8 7,7 15 8 24 13 ENE 1017,2 20 -
05.04.2020 02:00:00 12,8 11,0 16 9 - - NE 1017,3 20 -
05.04.2020 01:00:00 13,4 8,2 13 7 27 15 E 1017,3 20 -
05.04.2020 00:00:00 13,8 8,6 26 14 - - ESE 1017,2 20 -
04.04.2020 23:00:00 13,2 12,9 18 10 - - ESE 1017,2 20 -
04.04.2020 22:00:00 13,8 10,8 13 7 - - O 1017,2 20 -
04.04.2020 21:00:00 14,2 10,6 18 10 32 18 ONO 1017,0 20 -
04.04.2020 20:00:00 14,2 9,0 26 14 - - ONO 1015,9 20 18
04.04.2020 19:00:00 14,2 11,9 18 10 27 14 ONO 1016,1 20 60
04.04.2020 18:00:00 15,4 11,2 15 8 24 13 O 1015,8 20 60
04.04.2020 17:00:00 15,6 12,9 16 9 - - O 1015,1 20 60
04.04.2020 16:00:00 15,6 12,5 16 9 29 15 O 1016,0 20 60
04.04.2020 15:00:00 14,8 12,5 22 12 32 18 O 1016,1 20 60
04.04.2020 14:00:00 15,2 12,3 18 10 - - O 1016,2 20 60
04.04.2020 13:00:00 15,4 11,6 13 7 22 12 NO 1016,4 20 60
04.04.2020 12:00:00 - - - - - - - - - -
04.04.2020 11:00:00 15,8 10,4 8 4 - - N 1016,0 20 60
04.04.2020 10:00:00 14,6 9,4 5 3 - - NE 1015,1 20 60
04.04.2020 09:00:00 13,0 8,3 8 4 - - E 1014,6 20 60
04.04.2020 08:00:00 11,8 7,7 15 8 - - E 1014,1 20 24
04.04.2020 07:00:00 10,6 7,8 15 8 24 13 ESE 1014,0 20 -
04.04.2020 06:00:00 10,4 7,5 16 9 26 14 E 1013,7 20 -
04.04.2020 05:00:00 11,2 9,5 16 9 - - ENE 1013,7 20 -
04.04.2020 04:00:00 11,2 9,0 21 11 40 21 E 1013,6 20 -

tt = Temperatura
td = dewpoint
ff = velocità del vento
fx = gusts
dd = direzione del vento
ppp = reduced air pressure
vv = visibility
sd = ore di luce

Stazioni seguenti

WeatherPro
AMSI
MeteoEarth